Time,TemperatureF,DewpointF,PressureIn,WindDirection,WindDirectionDegrees,WindSpeedMPH,WindSpeedGustMPH,Humidity,HourlyPrecipIn,Conditions,Clouds,dailyrainin,SoftwareType,DateUTC
2013-09-24 00:00:00,75.1,73.6,29.94,SE,140,0.0,1.0,95,0.00,,,0.00,WeatherCatV1.21B27,2013-09-24 04:00:00,
2013-09-24 00:01:00,75.1,73.6,29.94,SE,140,0.0,0.0,95,0.00,,,0.00,WeatherCatV1.21B27,2013-09-24 04:01:00,
2013-09-24 00:02:00,75.1,73.6,29.94,SE,140,0.0,1.0,95,0.00,,,0.00,WeatherCatV1.21B27,2013-09-24 04:02:00,
2013-09-24 00:03:00,75.1,73.6,29.94,East,101,2.0,5.0,95,0.00,,,0.00,WeatherCatV1.21B27,2013-09-24 04:03:00,
2013-09-24 00:08:00,75.1,73.6,29.93,ENE,76,4.0,5.0,95,0.00,,,0.00,WeatherCatV1.21B27,2013-09-24 04:08:00,
2013-09-24 00:13:00,75.1,73.6,29.93,East,96,0.0,2.0,95,0.00,,,0.00,WeatherCatV1.21B27,2013-09-24 04:13:00,
2013-09-24 00:18:00,75.1,73.6,29.93,East,98,1.0,7.0,95,0.00,,,0.00,WeatherCatV1.21B27,2013-09-24 04:18:00,
2013-09-24 00:23:00,75.0,73.5,29.93,SE,144,0.0,0.0,95,0.00,,,0.00,WeatherCatV1.21B27,2013-09-24 04:23:00,
2013-09-24 00:28:00,75.0,73.5,29.93,SE,130,0.0,1.0,95,0.00,,,0.00,WeatherCatV1.21B27,2013-09-24 04:28:00,
2013-09-24 00:33:00,74.9,73.4,29.93,East,101,2.0,5.0,95,0.00,,,0.00,WeatherCatV1.21B27,2013-09-24 04:33:00,
2013-09-24 00:38:00,75.0,73.5,29.93,East,96,1.0,5.0,95,0.00,,,0.00,WeatherCatV1.21B27,2013-09-24 04:38:00,
2013-09-24 00:43:00,75.0,73.5,29.93,SE,132,0.0,4.0,95,0.00,,,0.00,WeatherCatV1.21B27,2013-09-24 04:43:00,
2013-09-24 00:48:00,75.0,73.5,29.93,ESE,102,0.0,2.0,95,0.00,,,0.00,WeatherCatV1.21B27,2013-09-24 04:48:00,
2013-09-24 00:53:00,75.0,73.5,29.93,ESE,119,1.0,5.0,95,0.00,,,0.00,WeatherCatV1.21B27,2013-09-24 04:53:00,
2013-09-24 00:58:00,75.0,73.5,29.92,SE,142,0.0,3.0,95,0.00,,,0.00,WeatherCatV1.21B27,2013-09-24 04:58:00,
2013-09-24 01:03:00,75.1,73.6,29.92,ESE,117,0.0,5.0,95,0.00,,,0.00,WeatherCatV1.21B27,2013-09-24 05:03:00,
2013-09-24 01:08:00,75.0,73.5,29.93,SE,139,0.0,1.0,95,0.00,,,0.00,WeatherCatV1.21B27,2013-09-24 05:08:00,
2013-09-24 01:13:00,75.0,73.5,29.93,ESE,103,0.0,2.0,95,0.00,,,0.00,WeatherCatV1.21B27,2013-09-24 05:13:00,
2013-09-24 01:18:00,75.0,73.5,29.93,SE,132,1.0,5.0,95,0.00,,,0.00,WeatherCatV1.21B27,2013-09-24 05:18:00,
2013-09-24 01:23:00,74.9,73.4,29.93,South,171,1.0,4.0,95,0.00,,,0.00,WeatherCatV1.21B27,2013-09-24 05:23:00,
2013-09-24 01:28:00,74.9,73.4,29.93,South,178,0.0,1.0,95,0.00,,,0.00,WeatherCatV1.21B27,2013-09-24 05:28:00,
2013-09-24 01:33:00,74.9,73.1,29.93,SSE,150,0.0,0.0,94,0.00,,,0.01,WeatherCatV1.21B27,2013-09-24 05:33:00,
2013-09-24 01:38:00,74.9,73.1,29.94,SSE,163,0.0,0.0,94,0.00,,,0.01,WeatherCatV1.21B27,2013-09-24 05:38:00,
2013-09-24 01:43:00,74.9,73.4,29.93,South,169,0.0,1.0,95,0.00,,,0.01,WeatherCatV1.21B27,2013-09-24 05:43:00,
2013-09-24 01:48:00,74.9,73.1,29.93,ESE,105,0.0,0.0,94,0.05,,,0.02,WeatherCatV1.21B27,2013-09-24 05:48:00,
2013-09-24 01:53:00,74.9,73.4,29.94,ESE,105,0.0,0.0,95,0.11,,,0.03,WeatherCatV1.21B27,2013-09-24 05:53:00,
2013-09-24 01:58:00,74.9,73.4,29.94,ESE,107,0.0,0.0,95,0.10,,,0.04,WeatherCatV1.21B27,2013-09-24 05:58:00,
2013-09-24 02:03:00,74.9,73.4,29.94,ESE,107,0.0,0.0,95,0.15,,,0.05,WeatherCatV1.21B27,2013-09-24 06:03:00,
2013-09-24 02:08:00,74.9,73.4,29.94,ESE,107,0.0,0.0,95,0.17,,,0.07,WeatherCatV1.21B27,2013-09-24 06:08:00,
2013-09-24 02:13:00,74.9,73.4,29.93,SSE,157,0.0,0.0,95,0.16,,,0.08,WeatherCatV1.21B27,2013-09-24 06:13:00,
2013-09-24 02:18:00,74.9,73.4,29.93,SSE,158,1.0,1.0,95,0.15,,,0.09,WeatherCatV1.21B27,2013-09-24 06:18:00,
2013-09-24 02:23:00,74.8,73.3,29.93,South,175,0.0,1.0,95,0.16,,,0.11,WeatherCatV1.21B27,2013-09-24 06:23:00,
2013-09-24 02:28:00,74.8,73.3,29.93,South,183,0.0,0.0,95,0.18,,,0.12,WeatherCatV1.21B27,2013-09-24 06:28:00,
2013-09-24 02:33:00,74.9,73.4,29.93,South,180,0.0,0.0,95,0.16,,,0.13,WeatherCatV1.21B27,2013-09-24 06:33:00,
2013-09-24 02:38:00,74.9,73.4,29.93,South,178,0.0,0.0,95,0.07,,,0.13,WeatherCatV1.21B27,2013-09-24 06:38:00,
2013-09-24 02:43:00,74.9,73.4,29.93,SSE,160,0.0,2.0,95,0.06,,,0.14,WeatherCatV1.21B27,2013-09-24 06:43:00,
2013-09-24 02:48:00,74.9,73.4,29.93,South,190,1.0,2.0,95,0.09,,,0.15,WeatherCatV1.21B27,2013-09-24 06:48:00,
2013-09-24 02:53:00,74.8,73.3,29.92,South,185,1.0,1.0,95,0.12,,,0.16,WeatherCatV1.21B27,2013-09-24 06:53:00,
2013-09-24 02:58:00,74.8,73.3,29.92,South,182,0.0,2.0,95,0.15,,,0.17,WeatherCatV1.21B27,2013-09-24 06:58:00,
2013-09-24 03:03:00,74.9,73.4,29.92,South,182,1.0,2.0,95,0.20,,,0.18,WeatherCatV1.21B27,2013-09-24 07:03:00,
2013-09-24 03:08:00,74.8,73.3,29.92,SSW,206,0.0,1.0,95,0.18,,,0.20,WeatherCatV1.21B27,2013-09-24 07:08:00,
2013-09-24 03:13:00,74.8,73.3,29.91,South,186,0.0,1.0,95,0.21,,,0.22,WeatherCatV1.21B27,2013-09-24 07:13:00,
2013-09-24 03:18:00,74.9,73.4,29.91,South,179,0.0,2.0,95,0.23,,,0.24,WeatherCatV1.21B27,2013-09-24 07:18:00,
2013-09-24 03:23:00,74.9,73.4,29.91,South,182,1.0,4.0,95,0.16,,,0.25,WeatherCatV1.21B27,2013-09-24 07:23:00,
2013-09-24 03:28:00,74.9,73.4,29.91,South,184,0.0,3.0,95,0.08,,,0.26,WeatherCatV1.21B27,2013-09-24 07:28:00,
2013-09-24 03:33:00,74.8,73.3,29.91,South,184,0.0,1.0,95,0.19,,,0.27,WeatherCatV1.21B27,2013-09-24 07:33:00,
2013-09-24 03:38:00,74.9,73.4,29.91,East,99,1.0,1.0,95,0.21,,,0.29,WeatherCatV1.21B27,2013-09-24 07:38:00,
2013-09-24 03:43:00,74.9,73.4,29.91,SSE,168,0.0,1.0,95,0.17,,,0.30,WeatherCatV1.21B27,2013-09-24 07:43:00,
2013-09-24 03:48:00,74.8,73.3,29.91,SSE,168,0.0,0.0,95,0.16,,,0.31,WeatherCatV1.21B27,2013-09-24 07:48:00,
2013-09-24 03:53:00,74.8,73.3,29.90,South,169,0.0,4.0,95,0.07,,,0.31,WeatherCatV1.21B27,2013-09-24 07:53:00,
2013-09-24 03:58:00,74.8,73.3,29.90,SSE,150,0.0,5.0,95,0.07,,,0.32,WeatherCatV1.21B27,2013-09-24 07:58:00,
2013-09-24 04:03:00,74.8,73.3,29.90,South,170,0.0,0.0,95,0.06,,,0.32,WeatherCatV1.21B27,2013-09-24 08:03:00,
2013-09-24 04:08:00,74.9,73.4,29.90,SSW,192,0.0,1.0,95,0.06,,,0.33,WeatherCatV1.21B27,2013-09-24 08:08:00,
2013-09-24 04:13:00,74.9,73.4,29.90,South,183,0.0,1.0,95,0.06,,,0.33,WeatherCatV1.21B27,2013-09-24 08:13:00,
2013-09-24 04:18:00,74.9,73.4,29.90,South,175,0.0,1.0,95,0.04,,,0.33,WeatherCatV1.21B27,2013-09-24 08:18:00,
2013-09-24 04:23:00,74.9,73.4,29.90,South,169,0.0,2.0,95,0.00,,,0.33,WeatherCatV1.21B27,2013-09-24 08:23:00,
2013-09-24 04:28:00,74.9,73.4,29.89,South,169,0.0,0.0,95,0.00,,,0.33,WeatherCatV1.21B27,2013-09-24 08:28:00,
2013-09-24 04:33:00,74.9,73.4,29.89,South,169,0.0,0.0,95,0.00,,,0.33,WeatherCatV1.21B27,2013-09-24 08:33:00,
2013-09-24 04:38:00,74.9,73.4,29.89,SSE,167,0.0,1.0,95,0.00,,,0.33,WeatherCatV1.21B27,2013-09-24 08:38:00,
2013-09-24 04:43:00,74.9,73.4,29.89,SSE,157,0.0,1.0,95,0.00,,,0.33,WeatherCatV1.21B27,2013-09-24 08:43:00,
2013-09-24 04:48:00,74.9,73.4,29.89,SSE,157,0.0,0.0,95,0.00,,,0.33,WeatherCatV1.21B27,2013-09-24 08:48:00,
2013-09-24 04:54:00,74.9,73.4,29.89,SSW,192,0.0,2.0,95,0.00,,,0.33,WeatherCatV1.21B27,2013-09-24 08:54:00,
2013-09-24 04:59:00,74.8,73.3,29.89,SSW,192,0.0,0.0,95,0.00,,,0.33,WeatherCatV1.21B27,2013-09-24 08:59:00,
2013-09-24 05:04:00,74.8,73.3,29.89,SSW,192,0.0,0.0,95,0.00,,,0.33,WeatherCatV1.21B27,2013-09-24 09:04:00,
2013-09-24 05:09:00,74.8,73.3,29.90,SSW,192,0.0,0.0,95,0.00,,,0.33,WeatherCatV1.21B27,2013-09-24 09:09:00,
2013-09-24 05:14:00,74.8,73.3,29.90,South,184,0.0,1.0,95,0.00,,,0.33,WeatherCatV1.21B27,2013-09-24 09:14:00,
2013-09-24 05:19:00,74.7,73.2,29.89,SE,140,1.0,1.0,95,0.00,,,0.33,WeatherCatV1.21B27,2013-09-24 09:19:00,
2013-09-24 05:24:00,74.7,73.2,29.90,SE,130,0.0,0.0,95,0.00,,,0.33,WeatherCatV1.21B27,2013-09-24 09:24:00,
2013-09-24 05:29:00,74.7,73.2,29.90,SE,130,0.0,0.0,95,0.00,,,0.33,WeatherCatV1.21B27,2013-09-24 09:29:00,
2013-09-24 05:34:00,74.7,73.2,29.90,SE,130,0.0,0.0,95,0.00,,,0.33,WeatherCatV1.21B27,2013-09-24 09:34:00,
2013-09-24 05:39:00,74.8,73.3,29.90,SE,130,0.0,0.0,95,0.00,,,0.33,WeatherCatV1.21B27,2013-09-24 09:39:00,
2013-09-24 05:44:00,74.8,73.3,29.90,SE,130,0.0,0.0,95,0.00,,,0.33,WeatherCatV1.21B27,2013-09-24 09:44:00,
2013-09-24 05:49:00,74.7,73.2,29.90,SE,130,0.0,0.0,95,0.00,,,0.33,WeatherCatV1.21B27,2013-09-24 09:49:00,
2013-09-24 05:54:00,74.9,73.4,29.91,SE,130,0.0,0.0,95,0.00,,,0.34,WeatherCatV1.21B27,2013-09-24 09:54:00,
2013-09-24 05:59:00,74.9,73.4,29.91,SE,130,0.0,0.0,95,0.09,,,0.35,WeatherCatV1.21B27,2013-09-24 09:59:00,
2013-09-24 06:04:00,74.9,73.4,29.91,SE,130,0.0,0.0,95,0.08,,,0.35,WeatherCatV1.21B27,2013-09-24 10:04:00,
2013-09-24 06:09:00,74.9,73.4,29.91,SE,130,0.0,0.0,95,0.06,,,0.36,WeatherCatV1.21B27,2013-09-24 10:09:00,
2013-09-24 06:14:00,74.9,73.4,29.91,SE,130,0.0,0.0,95,0.11,,,0.37,WeatherCatV1.21B27,2013-09-24 10:14:00,
2013-09-24 06:19:00,74.9,73.4,29.91,SE,130,0.0,0.0,95,0.09,,,0.37,WeatherCatV1.21B27,2013-09-24 10:19:00,
2013-09-24 06:24:00,74.9,73.4,29.91,ESE,107,0.0,1.0,95,0.09,,,0.38,WeatherCatV1.21B27,2013-09-24 10:24:00,
2013-09-24 06:29:00,74.9,73.4,29.91,ESE,107,0.0,0.0,95,0.10,,,0.39,WeatherCatV1.21B27,2013-09-24 10:29:00,
2013-09-24 06:34:00,74.9,73.4,29.91,ESE,107,0.0,0.0,95,0.07,,,0.39,WeatherCatV1.21B27,2013-09-24 10:34:00,
2013-09-24 06:39:00,74.9,73.4,29.90,ESE,107,0.0,0.0,95,0.06,,,0.40,WeatherCatV1.21B27,2013-09-24 10:39:00,
2013-09-24 06:44:00,74.9,73.4,29.90,ESE,107,0.0,0.0,95,0.06,,,0.40,WeatherCatV1.21B27,2013-09-24 10:44:00,
2013-09-24 06:49:00,74.9,73.4,29.90,ESE,107,0.0,1.0,95,0.05,,,0.40,WeatherCatV1.21B27,2013-09-24 10:49:00,
2013-09-24 06:54:00,74.9,73.4,29.90,ESE,107,0.0,0.0,95,0.04,,,0.41,WeatherCatV1.21B27,2013-09-24 10:54:00,
2013-09-24 06:59:00,74.9,73.4,29.91,SE,127,0.0,1.0,95,0.04,,,0.41,WeatherCatV1.21B27,2013-09-24 10:59:00,
2013-09-24 07:04:00,75.0,73.5,29.91,SE,128,0.0,0.0,95,0.04,,,0.41,WeatherCatV1.21B27,2013-09-24 11:04:00,
2013-09-24 07:09:00,75.0,73.5,29.91,SE,128,0.0,0.0,95,0.04,,,0.42,WeatherCatV1.21B27,2013-09-24 11:09:00,
2013-09-24 07:14:00,74.9,73.4,29.91,SE,128,0.0,0.0,95,0.04,,,0.42,WeatherCatV1.21B27,2013-09-24 11:14:00,
2013-09-24 07:19:00,74.9,73.4,29.91,SE,128,0.0,0.0,95,0.06,,,0.43,WeatherCatV1.21B27,2013-09-24 11:19:00,
2013-09-24 07:24:00,74.9,73.4,29.90,SE,127,0.0,1.0,95,0.06,,,0.43,WeatherCatV1.21B27,2013-09-24 11:24:00,
2013-09-24 07:29:00,75.0,73.5,29.90,ESE,117,0.0,1.0,95,0.07,,,0.44,WeatherCatV1.21B27,2013-09-24 11:29:00,
2013-09-24 07:34:00,75.0,73.5,29.91,ESE,115,0.0,0.0,95,0.10,,,0.45,WeatherCatV1.21B27,2013-09-24 11:34:00,
2013-09-24 07:39:00,75.0,73.5,29.91,ESE,114,0.0,0.0,95,0.08,,,0.46,WeatherCatV1.21B27,2013-09-24 11:39:00,
2013-09-24 07:44:00,75.0,73.5,29.91,ESE,115,0.0,0.0,95,0.08,,,0.46,WeatherCatV1.21B27,2013-09-24 11:44:00,
2013-09-24 07:49:00,75.1,73.6,29.92,ESE,115,0.0,0.0,95,0.09,,,0.47,WeatherCatV1.21B27,2013-09-24 11:49:00,
2013-09-24 07:54:00,75.1,73.6,29.92,ESE,114,0.0,0.0,95,0.08,,,0.48,WeatherCatV1.21B27,2013-09-24 11:54:00,
2013-09-24 07:59:00,75.1,73.6,29.93,ESE,115,0.0,0.0,95,0.12,,,0.49,WeatherCatV1.21B27,2013-09-24 11:59:00,
2013-09-24 08:04:00,75.2,73.7,29.92,ESE,115,0.0,0.0,95,0.10,,,0.49,WeatherCatV1.21B27,2013-09-24 12:04:00,
2013-09-24 08:09:00,75.2,73.7,29.92,ESE,114,0.0,0.0,95,0.10,,,0.50,WeatherCatV1.21B27,2013-09-24 12:09:00,
2013-09-24 08:14:00,75.3,73.8,29.92,ESE,113,0.0,0.0,95,0.10,,,0.51,WeatherCatV1.21B27,2013-09-24 12:14:00,
2013-09-24 08:19:00,75.3,73.8,29.92,ESE,113,0.0,0.0,95,0.16,,,0.52,WeatherCatV1.21B27,2013-09-24 12:19:00,
2013-09-24 08:24:00,75.4,73.9,29.92,ESE,113,0.0,0.0,95,0.15,,,0.54,WeatherCatV1.21B27,2013-09-24 12:24:00,
2013-09-24 08:29:00,75.4,73.9,29.92,ESE,113,0.0,0.0,95,0.10,,,0.54,WeatherCatV1.21B27,2013-09-24 12:29:00,
2013-09-24 08:34:00,75.5,74.0,29.93,ESE,113,0.0,0.0,95,0.10,,,0.55,WeatherCatV1.21B27,2013-09-24 12:34:00,
2013-09-24 08:39:00,75.5,74.0,29.93,ESE,113,0.0,0.0,95,0.06,,,0.55,WeatherCatV1.21B27,2013-09-24 12:39:00,
2013-09-24 08:44:00,75.5,74.0,29.93,ESE,113,0.0,0.0,95,0.05,,,0.56,WeatherCatV1.21B27,2013-09-24 12:44:00,
2013-09-24 08:49:00,75.6,74.1,29.93,ESE,113,0.0,0.0,95,0.14,,,0.57,WeatherCatV1.21B27,2013-09-24 12:49:00,
2013-09-24 08:54:00,75.6,74.1,29.93,ESE,113,0.0,0.0,95,0.12,,,0.58,WeatherCatV1.21B27,2013-09-24 12:54:00,
2013-09-24 08:59:00,75.7,74.2,29.93,ESE,113,0.0,0.0,95,0.12,,,0.60,WeatherCatV1.21B27,2013-09-24 12:59:00,
2013-09-24 09:04:00,75.7,74.2,29.93,NNW,333,0.0,0.0,95,0.18,,,0.61,WeatherCatV1.21B27,2013-09-24 13:04:00,
2013-09-24 09:09:00,75.8,74.3,29.94,WNW,299,2.0,4.0,95,0.11,,,0.62,WeatherCatV1.21B27,2013-09-24 13:09:00,
2013-09-24 09:14:00,75.8,74.3,29.94,NW,325,0.0,2.0,95,0.09,,,0.62,WeatherCatV1.21B27,2013-09-24 13:14:00,
2013-09-24 09:19:00,75.8,74.3,29.94,NW,325,1.0,2.0,95,0.08,,,0.63,WeatherCatV1.21B27,2013-09-24 13:19:00,
2013-09-24 09:24:00,75.9,74.4,29.95,NW,314,0.0,0.0,95,0.07,,,0.64,WeatherCatV1.21B27,2013-09-24 13:24:00,
2013-09-24 09:29:00,75.9,74.4,29.95,NW,314,0.0,1.0,95,0.33,,,0.68,WeatherCatV1.21B27,2013-09-24 13:29:00,
2013-09-24 09:34:00,75.9,74.4,29.96,WNW,283,0.0,0.0,95,0.13,,,0.69,WeatherCatV1.21B27,2013-09-24 13:34:00,
2013-09-24 09:39:00,76.0,74.5,29.96,West,281,0.0,0.0,95,0.35,,,0.73,WeatherCatV1.21B27,2013-09-24 13:39:00,
2013-09-24 09:44:00,75.5,74.0,29.96,South,181,0.0,4.0,95,0.20,,,0.76,WeatherCatV1.21B27,2013-09-24 13:44:00,
2013-09-24 09:49:00,75.0,73.5,29.95,South,169,0.0,0.0,95,0.18,,,0.77,WeatherCatV1.21B27,2013-09-24 13:49:00,
2013-09-24 09:54:00,74.7,73.2,29.96,South,169,0.0,1.0,95,0.08,,,0.77,WeatherCatV1.21B27,2013-09-24 13:54:00,
2013-09-24 09:59:00,74.3,72.8,29.96,WSW,253,2.0,2.0,95,0.51,,,0.85,WeatherCatV1.21B27,2013-09-24 13:59:00,
2013-09-24 10:04:00,73.8,72.0,29.96,NW,307,4.0,4.0,94,0.29,,,0.87,WeatherCatV1.21B27,2013-09-24 14:04:00,
2013-09-24 10:09:00,73.7,72.2,29.96,NW,310,2.0,7.0,95,4.00,,,1.03,WeatherCatV1.21B27,2013-09-24 14:09:00,
2013-09-24 10:14:00,74.0,72.5,29.95,ESE,104,2.0,3.0,95,0.54,,,1.11,WeatherCatV1.21B27,2013-09-24 14:14:00,
2013-09-24 10:19:00,74.1,72.6,29.95,ESE,105,0.0,2.0,95,0.35,,,1.15,WeatherCatV1.21B27,2013-09-24 14:19:00,
2013-09-24 10:24:00,74.1,72.6,29.95,East,80,0.0,0.0,95,0.16,,,1.16,WeatherCatV1.21B27,2013-09-24 14:24:00,
2013-09-24 10:29:00,74.2,72.7,29.94,SSE,163,0.0,0.0,95,0.09,,,1.16,WeatherCatV1.21B27,2013-09-24 14:29:00,
2013-09-24 10:34:00,74.2,72.7,29.93,South,173,0.0,1.0,95,0.08,,,1.17,WeatherCatV1.21B27,2013-09-24 14:34:00,
2013-09-24 10:39:00,74.0,72.5,29.94,SE,137,0.0,1.0,95,0.07,,,1.17,WeatherCatV1.21B27,2013-09-24 14:39:00,
2013-09-24 10:44:00,73.9,72.4,29.95,South,189,0.0,1.0,95,0.05,,,1.18,WeatherCatV1.21B27,2013-09-24 14:44:00,
2013-09-24 10:49:00,74.0,72.5,29.94,SE,142,0.0,1.0,95,0.10,,,1.19,WeatherCatV1.21B27,2013-09-24 14:49:00,
2013-09-24 10:54:00,74.2,72.7,29.94,SSE,148,0.0,0.0,95,0.09,,,1.19,WeatherCatV1.21B27,2013-09-24 14:54:00,
2013-09-24 10:59:00,74.2,72.7,29.94,SSE,148,0.0,0.0,95,0.06,,,1.20,WeatherCatV1.21B27,2013-09-24 14:59:00,
2013-09-24 11:04:00,74.3,72.8,29.94,SSE,148,0.0,0.0,95,0.15,,,1.21,WeatherCatV1.21B27,2013-09-24 15:04:00,
2013-09-24 11:09:00,74.3,72.8,29.94,SSE,148,0.0,0.0,95,0.14,,,1.23,WeatherCatV1.21B27,2013-09-24 15:09:00,
2013-09-24 11:14:00,74.4,72.9,29.94,SSE,148,0.0,0.0,95,0.13,,,1.24,WeatherCatV1.21B27,2013-09-24 15:14:00,
2013-09-24 11:19:00,74.4,72.9,29.95,SSE,148,0.0,0.0,95,0.15,,,1.25,WeatherCatV1.21B27,2013-09-24 15:19:00,
2013-09-24 11:24:00,74.4,72.9,29.94,South,171,0.0,1.0,95,0.11,,,1.26,WeatherCatV1.21B27,2013-09-24 15:24:00,
2013-09-24 11:29:00,74.4,72.9,29.94,South,171,0.0,0.0,95,0.14,,,1.27,WeatherCatV1.21B27,2013-09-24 15:29:00,
2013-09-24 11:34:00,74.4,72.9,29.93,South,171,0.0,0.0,95,0.08,,,1.27,WeatherCatV1.21B27,2013-09-24 15:34:00,
2013-09-24 11:39:00,74.4,72.9,29.93,South,171,0.0,0.0,95,0.14,,,1.28,WeatherCatV1.21B27,2013-09-24 15:39:00,
2013-09-24 11:44:00,74.3,72.8,29.93,South,171,0.0,0.0,95,0.12,,,1.29,WeatherCatV1.21B27,2013-09-24 15:44:00,
2013-09-24 11:49:00,74.3,72.8,29.93,South,171,0.0,0.0,95,0.10,,,1.30,WeatherCatV1.21B27,2013-09-24 15:49:00,
2013-09-24 11:54:00,74.3,72.8,29.93,South,171,0.0,0.0,95,0.10,,,1.31,WeatherCatV1.21B27,2013-09-24 15:54:00,
2013-09-24 11:59:00,74.3,72.8,29.93,South,171,0.0,0.0,95,0.07,,,1.31,WeatherCatV1.21B27,2013-09-24 15:59:00,
2013-09-24 12:04:00,74.3,72.8,29.93,South,171,0.0,0.0,95,0.07,,,1.32,WeatherCatV1.21B27,2013-09-24 16:04:00,
2013-09-24 12:09:00,74.3,72.8,29.93,SW,229,0.0,2.0,95,0.12,,,1.33,WeatherCatV1.21B27,2013-09-24 16:09:00,
2013-09-24 12:14:00,74.4,72.9,29.93,NW,313,0.0,2.0,95,0.09,,,1.34,WeatherCatV1.21B27,2013-09-24 16:14:00,
2013-09-24 12:19:00,74.5,73.0,29.93,NW,313,0.0,0.0,95,0.11,,,1.35,WeatherCatV1.21B27,2013-09-24 16:19:00,
2013-09-24 12:24:00,74.6,73.1,29.93,NW,313,0.0,1.0,95,0.08,,,1.35,WeatherCatV1.21B27,2013-09-24 16:24:00,
2013-09-24 12:29:00,74.7,73.2,29.93,NW,313,0.0,0.0,95,0.18,,,1.36,WeatherCatV1.21B27,2013-09-24 16:29:00,
2013-09-24 12:34:00,74.9,73.4,29.93,NW,306,0.0,0.0,95,0.14,,,1.38,WeatherCatV1.21B27,2013-09-24 16:34:00,
2013-09-24 12:39:00,75.0,73.5,29.93,SW,218,0.0,1.0,95,0.19,,,1.39,WeatherCatV1.21B27,2013-09-24 16:39:00,
2013-09-24 12:44:00,75.0,73.5,29.92,SW,232,0.0,1.0,95,0.17,,,1.41,WeatherCatV1.21B27,2013-09-24 16:44:00,
2013-09-24 12:49:00,75.0,73.5,29.92,SW,227,0.0,0.0,95,0.20,,,1.42,WeatherCatV1.21B27,2013-09-24 16:49:00,
2013-09-24 12:54:00,75.0,73.5,29.91,South,182,0.0,4.0,95,0.21,,,1.44,WeatherCatV1.21B27,2013-09-24 16:54:00,
2013-09-24 12:59:00,75.0,73.5,29.91,SW,229,0.0,1.0,95,0.15,,,1.46,WeatherCatV1.21B27,2013-09-24 16:59:00,
2013-09-24 13:04:00,75.0,73.5,29.91,SSW,209,0.0,6.0,95,0.16,,,1.47,WeatherCatV1.21B27,2013-09-24 17:04:00,
2013-09-24 13:09:00,75.1,73.6,29.91,WSW,245,2.0,7.0,95,0.21,,,1.49,WeatherCatV1.21B27,2013-09-24 17:09:00,
2013-09-24 13:14:00,75.1,73.6,29.91,SW,225,0.0,5.0,95,0.20,,,1.50,WeatherCatV1.21B27,2013-09-24 17:14:00,
2013-09-24 13:19:00,75.2,73.7,29.91,SSW,201,1.0,2.0,95,0.21,,,1.52,WeatherCatV1.21B27,2013-09-24 17:19:00,
2013-09-24 13:24:00,75.0,73.5,29.90,SSW,192,0.0,7.0,95,0.17,,,1.53,WeatherCatV1.21B27,2013-09-24 17:24:00,
2013-09-24 13:29:00,75.0,73.5,29.89,South,190,0.0,3.0,95,0.20,,,1.55,WeatherCatV1.21B27,2013-09-24 17:29:00,
2013-09-24 13:34:00,75.1,73.6,29.90,SSW,198,4.0,5.0,95,0.16,,,1.56,WeatherCatV1.21B27,2013-09-24 17:34:00,
2013-09-24 13:39:00,75.1,73.6,29.89,SSW,201,0.0,1.0,95,0.15,,,1.58,WeatherCatV1.21B27,2013-09-24 17:39:00,
2013-09-24 13:44:00,75.1,73.6,29.89,SSW,200,0.0,3.0,95,0.21,,,1.59,WeatherCatV1.21B27,2013-09-24 17:44:00,
2013-09-24 13:49:00,75.1,73.6,29.89,WSW,250,0.0,3.0,95,0.22,,,1.61,WeatherCatV1.21B27,2013-09-24 17:49:00,
2013-09-24 13:55:00,75.3,73.8,29.88,South,172,2.0,6.0,95,0.21,,,1.63,WeatherCatV1.21B27,2013-09-24 17:55:00,
2013-09-24 14:00:00,75.4,73.9,29.89,SW,221,0.0,4.0,95,0.12,,,1.64,WeatherCatV1.21B27,2013-09-24 18:00:00,
2013-09-24 14:05:00,75.4,73.9,29.89,SSW,192,0.0,4.0,95,0.12,,,1.65,WeatherCatV1.21B27,2013-09-24 18:05:00,
2013-09-24 14:10:00,75.4,73.9,29.88,WSW,241,1.0,4.0,95,0.09,,,1.65,WeatherCatV1.21B27,2013-09-24 18:10:00,
2013-09-24 14:15:00,75.3,73.8,29.89,South,190,0.0,5.0,95,0.08,,,1.66,WeatherCatV1.21B27,2013-09-24 18:15:00,
2013-09-24 14:20:00,75.4,73.9,29.89,SW,233,0.0,4.0,95,0.10,,,1.67,WeatherCatV1.21B27,2013-09-24 18:20:00,
2013-09-24 14:25:00,75.6,74.1,29.88,South,173,0.0,3.0,95,0.08,,,1.67,WeatherCatV1.21B27,2013-09-24 18:25:00,
2013-09-24 14:30:00,75.6,74.1,29.88,South,169,0.0,3.0,95,0.05,,,1.67,WeatherCatV1.21B27,2013-09-24 18:30:00,
2013-09-24 14:35:00,75.7,74.2,29.88,SE,146,1.0,5.0,95,0.00,,,1.67,WeatherCatV1.21B27,2013-09-24 18:35:00,
2013-09-24 14:40:00,75.7,74.2,29.88,South,190,2.0,2.0,95,0.00,,,1.68,WeatherCatV1.21B27,2013-09-24 18:40:00,
2013-09-24 14:45:00,75.7,74.2,29.89,South,182,0.0,4.0,95,0.00,,,1.68,WeatherCatV1.21B27,2013-09-24 18:45:00,
2013-09-24 14:50:00,75.7,74.2,29.89,South,181,0.0,7.0,95,0.00,,,1.68,WeatherCatV1.21B27,2013-09-24 18:50:00,
2013-09-24 14:55:00,75.5,74.0,29.88,SSW,210,0.0,4.0,95,0.00,,,1.69,WeatherCatV1.21B27,2013-09-24 18:55:00,
2013-09-24 15:00:00,75.5,74.0,29.88,South,184,1.0,5.0,95,0.00,,,1.69,WeatherCatV1.21B27,2013-09-24 19:00:00,
2013-09-24 15:05:00,75.2,73.7,29.88,South,174,0.0,4.0,95,0.07,,,1.70,WeatherCatV1.21B27,2013-09-24 19:05:00,
2013-09-24 15:10:00,75.1,73.6,29.88,SSE,167,1.0,5.0,95,0.11,,,1.71,WeatherCatV1.21B27,2013-09-24 19:10:00,
2013-09-24 15:15:00,75.3,73.8,29.87,SSE,161,2.0,5.0,95,0.09,,,1.72,WeatherCatV1.21B27,2013-09-24 19:15:00,
2013-09-24 15:20:00,75.3,73.8,29.88,SSW,193,0.0,5.0,95,0.09,,,1.72,WeatherCatV1.21B27,2013-09-24 19:20:00,
2013-09-24 15:25:00,75.5,74.0,29.88,South,184,1.0,4.0,95,0.09,,,1.73,WeatherCatV1.21B27,2013-09-24 19:25:00,
2013-09-24 15:30:00,75.6,74.1,29.88,SSE,153,0.0,2.0,95,0.07,,,1.73,WeatherCatV1.21B27,2013-09-24 19:30:00,
2013-09-24 15:35:00,75.7,74.2,29.88,SSW,193,0.0,5.0,95,0.04,,,1.73,WeatherCatV1.21B27,2013-09-24 19:35:00,
2013-09-24 15:40:00,75.7,74.2,29.88,SW,214,1.0,4.0,95,0.04,,,1.74,WeatherCatV1.21B27,2013-09-24 19:40:00,
2013-09-24 15:45:00,75.7,74.2,29.88,South,191,0.0,4.0,95,0.04,,,1.74,WeatherCatV1.21B27,2013-09-24 19:45:00,
2013-09-24 15:50:00,75.8,74.3,29.89,SSE,167,1.0,3.0,95,0.04,,,1.74,WeatherCatV1.21B27,2013-09-24 19:50:00,
2013-09-24 15:55:00,75.8,74.3,29.89,SSE,166,0.0,4.0,95,0.00,,,1.74,WeatherCatV1.21B27,2013-09-24 19:55:00,
2013-09-24 16:00:00,75.8,74.3,29.89,SSE,167,0.0,2.0,95,0.00,,,1.74,WeatherCatV1.21B27,2013-09-24 20:00:00,
2013-09-24 16:05:00,75.7,74.2,29.88,SSE,167,0.0,1.0,95,0.00,,,1.74,WeatherCatV1.21B27,2013-09-24 20:05:00,
2013-09-24 16:10:00,75.8,74.3,29.88,South,188,0.0,1.0,95,0.00,,,1.74,WeatherCatV1.21B27,2013-09-24 20:10:00,
2013-09-24 16:15:00,75.9,74.4,29.88,SW,223,3.0,4.0,95,0.00,,,1.74,WeatherCatV1.21B27,2013-09-24 20:15:00,
2013-09-24 16:20:00,76.1,74.6,29.88,SSW,213,0.0,1.0,95,0.00,,,1.74,WeatherCatV1.21B27,2013-09-24 20:20:00,
2013-09-24 16:25:00,76.3,74.8,29.87,SSW,208,0.0,2.0,95,0.00,,,1.74,WeatherCatV1.21B27,2013-09-24 20:25:00,
2013-09-24 16:30:00,76.5,74.9,29.87,SSE,163,0.0,0.0,95,0.00,,,1.74,WeatherCatV1.21B27,2013-09-24 20:30:00,
2013-09-24 16:35:00,76.7,75.2,29.87,South,181,0.0,0.0,95,0.00,,,1.74,WeatherCatV1.21B27,2013-09-24 20:35:00,
2013-09-24 16:40:00,76.9,75.3,29.86,South,181,0.0,0.0,95,0.00,,,1.74,WeatherCatV1.21B27,2013-09-24 20:40:00,
2013-09-24 16:45:00,77.0,75.4,29.86,SSW,196,0.0,1.0,95,0.00,,,1.74,WeatherCatV1.21B27,2013-09-24 20:45:00,
2013-09-24 16:50:00,77.1,75.6,29.86,SSW,196,0.0,0.0,95,0.00,,,1.74,WeatherCatV1.21B27,2013-09-24 20:50:00,
2013-09-24 16:55:00,77.1,75.2,29.86,SSW,195,0.0,0.0,94,0.00,,,1.74,WeatherCatV1.21B27,2013-09-24 20:55:00,
2013-09-24 17:00:00,77.1,75.2,29.86,SSW,195,0.0,0.0,94,0.00,,,1.74,WeatherCatV1.21B27,2013-09-24 21:00:00,
2013-09-24 17:05:00,77.2,75.3,29.87,SSW,195,0.0,0.0,94,0.00,,,1.74,WeatherCatV1.21B27,2013-09-24 21:05:00,
2013-09-24 17:10:00,77.2,75.3,29.87,South,186,0.0,5.0,94,0.00,,,1.74,WeatherCatV1.21B27,2013-09-24 21:10:00,
2013-09-24 17:15:00,77.1,75.2,29.87,SSW,202,0.0,1.0,94,0.00,,,1.74,WeatherCatV1.21B27,2013-09-24 21:15:00,
2013-09-24 17:20:00,77.2,75.3,29.87,SSW,202,0.0,0.0,94,0.00,,,1.74,WeatherCatV1.21B27,2013-09-24 21:20:00,
2013-09-24 17:25:00,77.3,75.4,29.87,West,276,0.0,4.0,94,0.00,,,1.74,WeatherCatV1.21B27,2013-09-24 21:25:00,
2013-09-24 17:30:00,77.4,75.5,29.87,SSW,211,0.0,2.0,94,0.00,,,1.74,WeatherCatV1.21B27,2013-09-24 21:30:00,
2013-09-24 17:35:00,77.4,75.2,29.87,SW,216,1.0,2.0,93,0.00,,,1.74,WeatherCatV1.21B27,2013-09-24 21:35:00,
2013-09-24 17:40:00,77.5,75.3,29.86,South,190,0.0,1.0,93,0.00,,,1.74,WeatherCatV1.21B27,2013-09-24 21:40:00,
2013-09-24 17:45:00,77.7,75.5,29.86,SSW,197,1.0,1.0,93,0.00,,,1.74,WeatherCatV1.21B27,2013-09-24 21:45:00,
2013-09-24 17:50:00,77.8,75.6,29.86,SSW,208,0.0,1.0,93,0.00,,,1.74,WeatherCatV1.21B27,2013-09-24 21:50:00,
2013-09-24 17:55:00,77.9,75.7,29.86,WSW,237,0.0,4.0,93,0.00,,,1.74,WeatherCatV1.21B27,2013-09-24 21:55:00,
2013-09-24 18:00:00,77.8,75.6,29.86,WSW,244,0.0,1.0,93,0.00,,,1.74,WeatherCatV1.21B27,2013-09-24 22:00:00,
2013-09-24 18:05:00,77.8,75.6,29.85,SSW,195,0.0,1.0,93,0.00,,,1.74,WeatherCatV1.21B27,2013-09-24 22:05:00,
2013-09-24 18:10:00,77.8,75.6,29.85,SSW,209,0.0,1.0,93,0.00,,,1.74,WeatherCatV1.21B27,2013-09-24 22:10:00,
2013-09-24 18:15:00,77.9,75.7,29.85,South,182,0.0,0.0,93,0.00,,,1.74,WeatherCatV1.21B27,2013-09-24 22:15:00,
2013-09-24 18:20:00,78.0,75.8,29.85,South,182,0.0,1.0,93,0.00,,,1.74,WeatherCatV1.21B27,2013-09-24 22:20:00,
2013-09-24 18:25:00,78.0,75.8,29.85,SW,232,0.0,2.0,93,0.00,,,1.74,WeatherCatV1.21B27,2013-09-24 22:25:00,
2013-09-24 18:30:00,78.0,75.8,29.86,SW,219,0.0,1.0,93,0.00,,,1.74,WeatherCatV1.21B27,2013-09-24 22:30:00,
2013-09-24 18:35:00,78.2,76.0,29.85,SW,221,0.0,8.0,93,0.00,,,1.74,WeatherCatV1.21B27,2013-09-24 22:35:00,
2013-09-24 18:40:00,78.3,76.1,29.85,SSW,201,4.0,5.0,93,0.00,,,1.74,WeatherCatV1.21B27,2013-09-24 22:40:00,
2013-09-24 18:45:00,78.4,76.2,29.85,West,261,0.0,3.0,93,0.00,,,1.74,WeatherCatV1.21B27,2013-09-24 22:45:00,
2013-09-24 18:50:00,78.4,75.9,29.85,South,172,8.0,11.0,92,0.00,,,1.74,WeatherCatV1.21B27,2013-09-24 22:50:00,
2013-09-24 18:55:00,78.5,75.6,29.85,SSW,195,1.0,7.0,91,0.00,,,1.74,WeatherCatV1.21B27,2013-09-24 22:55:00,
2013-09-24 19:00:00,78.6,75.4,29.85,SSW,202,0.0,2.0,90,0.00,,,1.74,WeatherCatV1.21B27,2013-09-24 23:00:00,
2013-09-24 19:05:00,78.6,75.7,29.86,South,185,1.0,1.0,91,0.00,,,1.74,WeatherCatV1.21B27,2013-09-24 23:05:00,
2013-09-24 19:10:00,78.7,75.8,29.86,South,191,0.0,2.0,91,0.00,,,1.74,WeatherCatV1.21B27,2013-09-24 23:10:00,
2013-09-24 19:15:00,78.7,75.8,29.86,SE,143,1.0,1.0,91,0.00,,,1.74,WeatherCatV1.21B27,2013-09-24 23:15:00,
2013-09-24 19:20:00,78.6,75.7,29.86,SSW,198,0.0,1.0,91,0.00,,,1.74,WeatherCatV1.21B27,2013-09-24 23:20:00,
2013-09-24 19:25:00,78.5,75.6,29.87,South,190,0.0,1.0,91,0.00,,,1.74,WeatherCatV1.21B27,2013-09-24 23:25:00,
2013-09-24 19:30:00,78.4,75.5,29.87,South,179,0.0,2.0,91,0.00,,,1.74,WeatherCatV1.21B27,2013-09-24 23:30:00,
2013-09-24 19:35:00,78.2,75.3,29.87,South,179,0.0,1.0,91,0.00,,,1.74,WeatherCatV1.21B27,2013-09-24 23:35:00,
2013-09-24 19:40:00,78.1,75.2,29.87,South,178,0.0,0.0,91,0.00,,,1.74,WeatherCatV1.21B27,2013-09-24 23:40:00,
2013-09-24 19:45:00,77.9,75.1,29.88,South,184,0.0,2.0,91,0.00,,,1.74,WeatherCatV1.21B27,2013-09-24 23:45:00,
2013-09-24 19:50:00,77.8,74.9,29.88,South,184,0.0,0.0,91,0.00,,,1.74,WeatherCatV1.21B27,2013-09-24 23:50:00,
2013-09-24 19:55:00,77.6,74.8,29.88,South,184,0.0,0.0,91,0.00,,,1.74,WeatherCatV1.21B27,2013-09-24 23:55:00,
2013-09-24 20:00:00,77.5,74.7,29.88,SSE,164,0.0,2.0,91,0.00,,,1.74,WeatherCatV1.21B27,2013-09-25 00:00:00,
2013-09-24 20:05:00,77.4,74.6,29.88,South,181,1.0,5.0,91,0.00,,,1.74,WeatherCatV1.21B27,2013-09-25 00:05:00,
2013-09-24 20:10:00,77.4,74.6,29.87,South,181,0.0,0.0,91,0.00,,,1.74,WeatherCatV1.21B27,2013-09-25 00:10:00,
2013-09-24 20:15:00,77.4,74.6,29.87,SSE,153,0.0,5.0,91,0.00,,,1.74,WeatherCatV1.21B27,2013-09-25 00:15:00,
2013-09-24 20:20:00,77.4,74.6,29.88,South,188,0.0,3.0,91,0.00,,,1.74,WeatherCatV1.21B27,2013-09-25 00:20:00,
2013-09-24 20:25:00,77.4,74.9,29.88,South,188,0.0,1.0,92,0.00,,,1.74,WeatherCatV1.21B27,2013-09-25 00:25:00,
2013-09-24 20:30:00,77.5,75.0,29.88,South,188,0.0,0.0,92,0.00,,,1.74,WeatherCatV1.21B27,2013-09-25 00:30:00,
2013-09-24 20:35:00,77.6,75.1,29.88,South,188,0.0,0.0,92,0.00,,,1.74,WeatherCatV1.21B27,2013-09-25 00:35:00,
2013-09-24 20:40:00,77.7,75.2,29.88,SSW,192,0.0,0.0,92,0.00,,,1.74,WeatherCatV1.21B27,2013-09-25 00:40:00,
2013-09-24 20:45:00,77.7,75.2,29.88,SW,221,0.0,0.0,92,0.00,,,1.74,WeatherCatV1.21B27,2013-09-25 00:45:00,
2013-09-24 20:50:00,77.8,75.3,29.87,SW,221,0.0,0.0,92,0.00,,,1.74,WeatherCatV1.21B27,2013-09-25 00:50:00,
2013-09-24 20:55:00,77.7,75.2,29.87,SSW,212,0.0,1.0,92,0.00,,,1.74,WeatherCatV1.21B27,2013-09-25 00:55:00,
2013-09-24 21:00:00,77.6,74.8,29.87,SSW,204,0.0,0.0,91,0.00,,,1.74,WeatherCatV1.21B27,2013-09-25 01:00:00,
2013-09-24 21:05:00,77.6,74.8,29.88,SW,227,0.0,0.0,91,0.00,,,1.74,WeatherCatV1.21B27,2013-09-25 01:05:00,
2013-09-24 21:10:00,77.6,74.4,29.88,SW,217,0.0,0.0,90,0.00,,,1.74,WeatherCatV1.21B27,2013-09-25 01:10:00,
2013-09-24 21:15:00,77.7,74.8,29.88,SW,217,0.0,0.0,91,0.00,,,1.74,WeatherCatV1.21B27,2013-09-25 01:15:00,
2013-09-24 21:20:00,77.7,74.5,29.88,South,186,0.0,0.0,90,0.00,,,1.74,WeatherCatV1.21B27,2013-09-25 01:20:00,
2013-09-24 21:25:00,77.8,74.9,29.88,SW,217,0.0,1.0,91,0.00,,,1.74,WeatherCatV1.21B27,2013-09-25 01:25:00,
2013-09-24 21:30:00,77.9,75.1,29.88,SSW,213,0.0,0.0,91,0.00,,,1.74,WeatherCatV1.21B27,2013-09-25 01:30:00,
2013-09-24 21:35:00,78.0,75.2,29.88,WSW,250,0.0,0.0,91,0.00,,,1.74,WeatherCatV1.21B27,2013-09-25 01:35:00,
2013-09-24 21:40:00,78.2,75.3,29.88,SSW,213,1.0,4.0,91,0.00,,,1.74,WeatherCatV1.21B27,2013-09-25 01:40:00,
2013-09-24 21:45:00,78.3,75.1,29.88,SSW,213,0.0,0.0,90,0.00,,,1.74,WeatherCatV1.21B27,2013-09-25 01:45:00,
2013-09-24 21:50:00,78.3,75.1,29.88,South,172,0.0,0.0,90,0.00,,,1.74,WeatherCatV1.21B27,2013-09-25 01:50:00,
2013-09-24 21:55:00,78.3,75.1,29.88,South,175,0.0,0.0,90,0.00,,,1.74,WeatherCatV1.21B27,2013-09-25 01:55:00,
2013-09-24 22:00:00,78.3,74.8,29.88,South,183,0.0,0.0,89,0.00,,,1.74,WeatherCatV1.21B27,2013-09-25 02:00:00,
2013-09-24 22:05:00,78.3,74.8,29.88,South,182,0.0,0.0,89,0.00,,,1.74,WeatherCatV1.21B27,2013-09-25 02:05:00,
2013-09-24 22:10:00,78.3,74.8,29.88,South,180,0.0,0.0,89,0.00,,,1.74,WeatherCatV1.21B27,2013-09-25 02:10:00,
2013-09-24 22:15:00,78.3,74.8,29.88,SE,129,0.0,2.0,89,0.00,,,1.74,WeatherCatV1.21B27,2013-09-25 02:15:00,
2013-09-24 22:20:00,78.2,74.7,29.88,SSE,168,0.0,1.0,89,0.00,,,1.74,WeatherCatV1.21B27,2013-09-25 02:20:00,
2013-09-24 22:25:00,78.2,74.3,29.88,SW,229,0.0,0.0,88,0.00,,,1.74,WeatherCatV1.21B27,2013-09-25 02:25:00,
2013-09-24 22:30:00,78.2,74.3,29.88,SSW,192,0.0,0.0,88,0.00,,,1.74,WeatherCatV1.21B27,2013-09-25 02:30:00,
2013-09-24 22:35:00,78.1,74.2,29.88,South,180,0.0,1.0,88,0.00,,,1.74,WeatherCatV1.21B27,2013-09-25 02:35:00,
2013-09-24 22:40:00,78.2,74.7,29.88,South,178,0.0,1.0,89,0.00,,,1.74,WeatherCatV1.21B27,2013-09-25 02:40:00,
2013-09-24 22:45:00,78.2,74.7,29.88,South,185,0.0,1.0,89,0.00,,,1.74,WeatherCatV1.21B27,2013-09-25 02:45:00,
2013-09-24 22:50:00,78.2,74.7,29.87,South,185,0.0,0.0,89,0.00,,,1.74,WeatherCatV1.21B27,2013-09-25 02:50:00,
2013-09-24 22:55:00,78.3,74.8,29.88,South,185,0.0,0.0,89,0.00,,,1.74,WeatherCatV1.21B27,2013-09-25 02:55:00,
2013-09-24 23:00:00,78.3,75.1,29.88,South,185,0.0,0.0,90,0.00,,,1.74,WeatherCatV1.21B27,2013-09-25 03:00:00,
2013-09-24 23:05:00,78.2,75.0,29.88,SSW,195,0.0,1.0,90,0.00,,,1.74,WeatherCatV1.21B27,2013-09-25 03:05:00,
2013-09-24 23:10:00,78.2,75.0,29.88,SSW,194,0.0,0.0,90,0.00,,,1.74,WeatherCatV1.21B27,2013-09-25 03:10:00,
2013-09-24 23:15:00,78.2,75.0,29.88,SSW,194,0.0,0.0,90,0.00,,,1.74,WeatherCatV1.21B27,2013-09-25 03:15:00,
2013-09-24 23:20:00,78.2,75.3,29.88,South,191,0.0,2.0,91,0.00,,,1.74,WeatherCatV1.21B27,2013-09-25 03:20:00,
2013-09-24 23:25:00,78.3,75.4,29.87,South,185,0.0,0.0,91,0.00,,,1.74,WeatherCatV1.21B27,2013-09-25 03:25:00,
2013-09-24 23:30:00,78.4,75.5,29.87,SSW,192,0.0,0.0,91,0.00,,,1.74,WeatherCatV1.21B27,2013-09-25 03:30:00,
2013-09-24 23:35:00,78.4,75.5,29.87,South,188,0.0,4.0,91,0.00,,,1.74,WeatherCatV1.21B27,2013-09-25 03:35:00,
2013-09-24 23:40:00,78.6,75.7,29.86,SSW,197,0.0,2.0,91,0.00,,,1.74,WeatherCatV1.21B27,2013-09-25 03:40:00,
2013-09-24 23:45:00,78.7,75.5,29.86,South,178,1.0,5.0,90,0.00,,,1.74,WeatherCatV1.21B27,2013-09-25 03:45:00,
2013-09-24 23:50:00,78.8,75.6,29.86,SSW,197,0.0,2.0,90,0.00,,,1.74,WeatherCatV1.21B27,2013-09-25 03:50:00,
2013-09-24 23:55:00,78.8,75.6,29.86,South,183,0.0,1.0,90,0.00,,,1.74,WeatherCatV1.21B27,2013-09-25 03:55:00,